Weather History for Toledo Metcalf, OH

Change the Weather History Date:

Monday, October 29, 2012

  Actual Average (KTOL) Record (KTOL)
Temperature  
Mean Temperature 42 °F 48 °F  
Max Temperature 44 °F 58 °F 78 °F (1999)
Min Temperature 39 °F 38 °F 16 °F (1965)
Degree Days  
Heating Degree Days 23 17  
Month to date heating degree days 368  
Since 1 July heating degree days 492  
Cooling Degree Days 0 0  
Month to date cooling degree days 8  
Year to date cooling degree days 792  
Moisture  
Dew Point 31 °F    
Average Humidity 65    
Maximum Humidity 73    
Minimum Humidity 53    
Precipitation  
Precipitation 0.01 in 0.08 in 0.50 in (1973)
Month to date precipitation 2.44  
Year to date precipitation 28.54  
Snow  
Snow 0.00 in 0.10 in - ()
Month to date snowfall 0.2  
Since 1 July snowfall 0.2  
Since 1 September snowfall 0.2  
Snow Depth -    
Sea Level Pressure  
Sea Level Pressure 29.96 in    
Wind  
Wind Speed 18 mph (NNW)    
Max Wind Speed 30 mph    
Max Gust Speed 46 mph    
Visibility 10 miles    
Events Rain    
T = Trace of Precipitation, MM = Missing Value Source: NWS Daily Summary

Daily Weather History Graph

Daily Weather History Graph

Search for Another Location

Airport:

Trip Planner

Search our weather history database for the weather conditions in past years. The results will help you decide how hot, cold, wet, or windy it might be!

Date:

Astronomy

Oct. 29, 2012 Rise Set
Actual Time 8:02 AM EDT 6:31 PM EDT
Civil Twilight 7:34 AM EDT 7:00 PM EDT
Nautical Twilight 7:01 AM EDT 7:33 PM EDT
Astronomical Twilight 6:29 AM EDT 8:05 PM EDT
Moon 6:22 PM EDT (10/29) 7:52 AM EDT (10/29)
Length of Visible Light 11h 26m
Length of Day
10h 29m
Full, 100% of the Moon is Illuminated
Oct 29
Full
Oct 29
Full
Nov 6
Last Quarter
Nov 13
New
Nov 20
First Quarter

Hourly Weather History & Observations

Time (EDT) Temp. Windchill Dew Point Humidity Pressure Visibility Wind Dir Wind Speed Gust Speed Precip Events Conditions
12:53 AM 41.0 °F 32.5 °F 33.1 °F 73% 30.09 in 10.0 mi North 17.3 mph 24.2 mph 0.01 in Rain Light Rain
1:53 AM 41.0 °F 34.3 °F 33.1 °F 73% 30.07 in 10.0 mi North 11.5 mph 24.2 mph 0.00 in Rain Light Rain
2:53 AM 41.0 °F 33.1 °F 32.0 °F 70% 30.07 in 10.0 mi North 15.0 mph 26.5 mph 0.00 in Rain Light Rain
3:53 AM 41.0 °F 33.5 °F 30.9 °F 67% 30.05 in 10.0 mi NNW 13.8 mph - 0.00 in   Overcast
4:53 AM 41.0 °F 32.2 °F 30.9 °F 67% 30.04 in 10.0 mi NNW 18.4 mph 28.8 mph 0.00 in Rain Light Rain
5:53 AM 41.0 °F 31.9 °F 30.9 °F 67% 30.04 in 10.0 mi NNW 19.6 mph 26.5 mph 0.00 in   Overcast
6:53 AM 41.0 °F 32.8 °F 32.0 °F 70% 30.04 in 10.0 mi North 16.1 mph 24.2 mph 0.00 in Rain Light Rain
7:53 AM 41.0 °F 31.6 °F 30.0 °F 65% 30.03 in 10.0 mi NNW 20.7 mph 28.8 mph 0.00 in   Overcast
8:50 AM 41.0 °F 32.2 °F 30.2 °F 65% 30.02 in 10.0 mi NNW 18.4 mph 26.5 mph N/A   Overcast
8:53 AM 41.0 °F 31.6 °F 30.0 °F 65% 30.03 in 10.0 mi NNW 20.7 mph 26.5 mph N/A   Overcast
9:53 AM 41.0 °F 32.8 °F 30.9 °F 67% 30.02 in 10.0 mi NNW 16.1 mph 27.6 mph N/A   Overcast
10:53 AM 41.0 °F 32.2 °F 32.0 °F 70% 30.02 in 10.0 mi NNW 18.4 mph 29.9 mph 0.00 in Rain Light Rain
11:20 AM 42.8 °F 35.1 °F 32.0 °F 66% 30.00 in 10.0 mi NNW 16.1 mph 29.9 mph 0.00 in   Overcast
11:36 AM 42.8 °F 34.3 °F 30.2 °F 61% 30.00 in 10.0 mi NNW 19.6 mph 31.1 mph 0.00 in   Overcast
11:53 AM 42.1 °F 33.1 °F 30.9 °F 65% 30.01 in 10.0 mi NNW 20.7 mph 29.9 mph 0.00 in   Overcast
12:53 PM 43.0 °F 34.2 °F 32.0 °F 65% 29.99 in 10.0 mi NNW 20.7 mph 27.6 mph N/A   Overcast
1:53 PM 43.0 °F 34.2 °F 32.0 °F 65% 29.97 in 10.0 mi NNW 20.7 mph 32.2 mph N/A   Overcast
2:53 PM 43.0 °F 34.0 °F 33.1 °F 68% 29.95 in 10.0 mi NNW 21.9 mph 31.1 mph 0.00 in Rain Light Rain
3:37 PM 42.8 °F 33.5 °F 33.8 °F 70% 29.93 in 10.0 mi NNW 23.0 mph 33.4 mph 0.01 in Rain Light Rain
4:53 PM 43.0 °F 34.2 °F 32.0 °F 65% 29.91 in 10.0 mi North 20.7 mph 33.4 mph 0.00 in   Overcast
5:53 PM 43.0 °F 35.1 °F 30.9 °F 62% 29.88 in 10.0 mi NNW 17.3 mph 29.9 mph N/A   Overcast
6:53 PM 43.0 °F 35.1 °F 30.0 °F 60% 29.86 in 10.0 mi North 17.3 mph 28.8 mph N/A   Overcast
7:53 PM 43.0 °F 34.0 °F 28.9 °F 58% 29.84 in 10.0 mi NNW 21.9 mph 39.1 mph N/A   Overcast
8:53 PM 43.0 °F 32.7 °F 28.0 °F 56% 29.80 in 10.0 mi NNW 28.8 mph 41.4 mph N/A   Overcast
9:53 PM 43.0 °F 32.5 °F 28.0 °F 56% 29.77 in 10.0 mi NNW 29.9 mph 46.0 mph N/A   Overcast
10:53 PM 43.0 °F 33.5 °F 27.0 °F 53% 29.73 in 10.0 mi NNW 24.2 mph 46.0 mph N/A   Overcast
11:53 PM 39.9 °F 28.6 °F 28.0 °F 63% 29.69 in 10.0 mi NNW 28.8 mph 40.3 mph 0.00 in Rain Light Rain